Year,Month,Day,Hour,Minute,Value (Times are PST for windspeed in km/hr)
2019,10,15,00,00,1.90
2019,10,15,00,01,1.50
2019,10,15,00,02,2.90
2019,10,15,00,03,0.90
2019,10,15,00,04,0.60
2019,10,15,00,05,0.70
2019,10,15,00,06,0.90
2019,10,15,00,07,0.50
2019,10,15,00,08,1.20
2019,10,15,00,09,1.00
2019,10,15,00,10,3.30
2019,10,15,00,11,4.60
2019,10,15,00,12,4.90
2019,10,15,00,13,5.00
2019,10,15,00,14,4.30
2019,10,15,00,15,5.20
2019,10,15,00,16,3.30
2019,10,15,00,17,4.80
2019,10,15,00,18,3.80
2019,10,15,00,19,2.90
2019,10,15,00,20,4.00
2019,10,15,00,21,1.30
2019,10,15,00,22,1.90
2019,10,15,00,23,1.80
2019,10,15,00,24,2.00
2019,10,15,00,25,2.50
2019,10,15,00,26,1.40
2019,10,15,00,27,1.30
2019,10,15,00,28,1.40
2019,10,15,00,29,3.80
2019,10,15,00,30,3.50
2019,10,15,00,31,4.60
2019,10,15,00,32,5.70
2019,10,15,00,33,2.60
2019,10,15,00,34,3.90
2019,10,15,00,35,0.90
2019,10,15,00,36,4.70
2019,10,15,00,37,4.90
2019,10,15,00,38,3.30
2019,10,15,00,39,1.90
2019,10,15,00,40,2.80
2019,10,15,00,41,1.20
2019,10,15,00,42,1.00
2019,10,15,00,43,2.20
2019,10,15,00,44,0.40
2019,10,15,00,45,1.60
2019,10,15,00,46,3.00
2019,10,15,00,47,1.80
2019,10,15,00,48,2.00
2019,10,15,00,49,2.90
2019,10,15,00,50,1.20
2019,10,15,00,51,1.30
2019,10,15,00,52,1.40
2019,10,15,00,53,2.30
2019,10,15,00,54,2.10
2019,10,15,00,55,1.10
2019,10,15,00,56,1.90
2019,10,15,00,57,1.50
2019,10,15,00,58,1.10
2019,10,15,00,59,1.60
2019,10,15,01,00,0.90
2019,10,15,01,01,0.10
2019,10,15,01,02,0.80
2019,10,15,01,03,1.60
2019,10,15,01,04,3.90
2019,10,15,01,05,3.10
2019,10,15,01,06,2.60
2019,10,15,01,07,3.90
2019,10,15,01,08,5.50
2019,10,15,01,09,4.00
2019,10,15,01,10,6.20
2019,10,15,01,11,4.00
2019,10,15,01,12,2.70
2019,10,15,01,13,3.90
2019,10,15,01,14,1.10
2019,10,15,01,15,1.20
2019,10,15,01,16,0.70
2019,10,15,01,17,0.80
2019,10,15,01,18,3.60
2019,10,15,01,19,1.80
2019,10,15,01,20,1.40
2019,10,15,01,21,1.40
2019,10,15,01,22,0.30
2019,10,15,01,23,0.10
2019,10,15,01,24,0.30
2019,10,15,01,25,0.60
2019,10,15,01,26,1.20
2019,10,15,01,27,0.90
2019,10,15,01,28,0.00
2019,10,15,01,29,0.00
2019,10,15,01,30,0.00
2019,10,15,01,31,0.00
2019,10,15,01,32,0.00
2019,10,15,01,33,0.00
2019,10,15,01,34,0.00
2019,10,15,01,35,0.00
2019,10,15,01,36,0.00
2019,10,15,01,37,0.00
2019,10,15,01,38,0.10
2019,10,15,01,39,0.20
2019,10,15,01,40,0.00
2019,10,15,01,41,0.50
2019,10,15,01,42,0.70
2019,10,15,01,43,1.10
2019,10,15,01,44,2.20
2019,10,15,01,45,1.90
2019,10,15,01,46,2.40
2019,10,15,01,47,3.00
2019,10,15,01,48,2.10
2019,10,15,01,49,0.50
2019,10,15,01,50,0.50
2019,10,15,01,51,0.20
2019,10,15,01,52,0.20
2019,10,15,01,53,3.10
2019,10,15,01,54,0.10
2019,10,15,01,55,1.10
2019,10,15,01,56,3.90
2019,10,15,01,57,1.60
2019,10,15,01,58,2.90
2019,10,15,01,59,2.40
2019,10,15,02,00,2.10
2019,10,15,02,01,1.10
2019,10,15,02,02,0.40
2019,10,15,02,03,0.00
2019,10,15,02,04,0.00
2019,10,15,02,05,0.00
2019,10,15,02,06,0.00
2019,10,15,02,07,0.10
2019,10,15,02,08,1.20
2019,10,15,02,09,1.60
2019,10,15,02,10,0.70
2019,10,15,02,11,0.00
2019,10,15,02,12,0.00
2019,10,15,02,13,0.00
2019,10,15,02,14,0.00
2019,10,15,02,15,0.00
2019,10,15,02,16,2.70
2019,10,15,02,17,2.70
2019,10,15,02,18,1.80
2019,10,15,02,19,3.60
2019,10,15,02,20,3.10
2019,10,15,02,21,1.60
2019,10,15,02,22,3.30
2019,10,15,02,23,2.70
2019,10,15,02,24,1.40
2019,10,15,02,25,2.70
2019,10,15,02,26,2.90
2019,10,15,02,27,2.10
2019,10,15,02,28,1.30
2019,10,15,02,29,1.20
2019,10,15,02,30,1.40
2019,10,15,02,31,0.60
2019,10,15,02,32,0.00
2019,10,15,02,33,0.00
2019,10,15,02,34,0.10
2019,10,15,02,35,0.10
2019,10,15,02,36,1.90
2019,10,15,02,37,0.10
2019,10,15,02,38,0.10
2019,10,15,02,39,0.40
2019,10,15,02,40,2.10
2019,10,15,02,41,0.20
2019,10,15,02,42,0.00
2019,10,15,02,43,0.00
2019,10,15,02,44,0.00
2019,10,15,02,45,0.10
2019,10,15,02,46,0.60
2019,10,15,02,47,0.80
2019,10,15,02,48,0.80
2019,10,15,02,49,1.30
2019,10,15,02,50,1.30
2019,10,15,02,51,3.80
2019,10,15,02,52,5.50
2019,10,15,02,53,1.70
2019,10,15,02,54,2.00
2019,10,15,02,55,5.20
2019,10,15,02,56,2.40
2019,10,15,02,57,4.60
2019,10,15,02,58,1.30
2019,10,15,02,59,1.20
2019,10,15,03,00,2.50
2019,10,15,03,01,5.50
2019,10,15,03,02,4.80
2019,10,15,03,03,4.60
2019,10,15,03,04,4.90
2019,10,15,03,05,3.70
2019,10,15,03,06,4.60
2019,10,15,03,07,5.80
2019,10,15,03,08,4.80
2019,10,15,03,09,6.10
2019,10,15,03,10,5.80
2019,10,15,03,11,6.60
2019,10,15,03,12,5.70
2019,10,15,03,13,9.70
2019,10,15,03,14,6.70
2019,10,15,03,15,8.70
2019,10,15,03,16,6.70
2019,10,15,03,17,6.10
2019,10,15,03,18,5.00
2019,10,15,03,19,7.00
2019,10,15,03,20,5.70
2019,10,15,03,21,5.00
2019,10,15,03,22,5.50
2019,10,15,03,23,5.70
2019,10,15,03,24,3.30
2019,10,15,03,25,3.30
2019,10,15,03,26,1.70
2019,10,15,03,27,1.70
2019,10,15,03,28,2.10
2019,10,15,03,29,4.30
2019,10,15,03,30,4.90
2019,10,15,03,31,4.50
2019,10,15,03,32,2.00
2019,10,15,03,33,2.70
2019,10,15,03,34,6.00
2019,10,15,03,35,3.90
2019,10,15,03,36,4.90
2019,10,15,03,37,5.80
2019,10,15,03,38,6.80
2019,10,15,03,39,5.60
2019,10,15,03,40,5.30
2019,10,15,03,41,5.50
2019,10,15,03,42,4.80
2019,10,15,03,43,5.30
2019,10,15,03,44,4.40
2019,10,15,03,45,2.40
2019,10,15,03,46,4.60
2019,10,15,03,47,1.80
2019,10,15,03,48,4.20
2019,10,15,03,49,4.30
2019,10,15,03,50,3.30
2019,10,15,03,51,1.80
2019,10,15,03,52,3.30
2019,10,15,03,53,5.30
2019,10,15,03,54,7.20
2019,10,15,03,55,6.20
2019,10,15,03,56,5.70
2019,10,15,03,57,5.40
2019,10,15,03,58,4.40
2019,10,15,03,59,6.70
2019,10,15,04,00,6.10
2019,10,15,04,01,6.50
2019,10,15,04,02,6.20
2019,10,15,04,03,6.00
2019,10,15,04,04,8.40
2019,10,15,04,05,8.30
2019,10,15,04,06,6.60
2019,10,15,04,07,6.70
2019,10,15,04,08,5.40
2019,10,15,04,09,10.80
2019,10,15,04,10,7.40
2019,10,15,04,11,9.80
2019,10,15,04,12,9.30
2019,10,15,04,13,8.70
2019,10,15,04,14,6.20
2019,10,15,04,15,5.90
2019,10,15,04,16,7.70
2019,10,15,04,17,6.20
2019,10,15,04,18,6.00
2019,10,15,04,19,6.30
2019,10,15,04,20,4.60
2019,10,15,04,21,4.50
2019,10,15,04,22,4.80
2019,10,15,04,23,3.70
2019,10,15,04,24,4.00
2019,10,15,04,25,4.30
2019,10,15,04,26,3.20
2019,10,15,04,27,6.40
2019,10,15,04,28,5.20
2019,10,15,04,29,4.20
2019,10,15,04,30,2.90
2019,10,15,04,31,3.20
2019,10,15,04,32,4.50
2019,10,15,04,33,2.90
2019,10,15,04,34,4.80
2019,10,15,04,35,6.40
2019,10,15,04,36,7.40
2019,10,15,04,37,6.40
2019,10,15,04,38,3.90
2019,10,15,04,39,4.70
2019,10,15,04,40,4.50
2019,10,15,04,41,6.40
2019,10,15,04,42,3.30
2019,10,15,04,43,3.40
2019,10,15,04,44,3.30
2019,10,15,04,45,3.20
2019,10,15,04,46,4.20
2019,10,15,04,47,5.50
2019,10,15,04,48,7.70
2019,10,15,04,49,5.40
2019,10,15,04,50,9.40
2019,10,15,04,51,8.30
2019,10,15,04,52,5.50
2019,10,15,04,53,4.30
2019,10,15,04,54,7.20
2019,10,15,04,55,8.70
2019,10,15,04,56,8.60
2019,10,15,04,57,7.20
2019,10,15,04,58,9.50
2019,10,15,04,59,9.00
2019,10,15,05,00,8.20
2019,10,15,05,01,10.00
2019,10,15,05,02,6.30
2019,10,15,05,03,7.00
2019,10,15,05,04,6.70
2019,10,15,05,05,4.90
2019,10,15,05,06,8.00
2019,10,15,05,07,7.70
2019,10,15,05,08,7.60
2019,10,15,05,09,7.60
2019,10,15,05,10,9.10
2019,10,15,05,11,7.60
2019,10,15,05,12,10.60
2019,10,15,05,13,7.20
2019,10,15,05,14,8.20
2019,10,15,05,15,4.90
2019,10,15,05,16,6.00
2019,10,15,05,17,4.20
2019,10,15,05,18,9.50
2019,10,15,05,19,7.70
2019,10,15,05,20,8.10
2019,10,15,05,21,10.90
2019,10,15,05,22,10.00
2019,10,15,05,23,6.60
2019,10,15,05,24,5.60
2019,10,15,05,25,8.90
2019,10,15,05,26,7.50
2019,10,15,05,27,8.00
2019,10,15,05,28,7.70
2019,10,15,05,29,9.00
2019,10,15,05,30,8.50
2019,10,15,05,31,6.80
2019,10,15,05,32,10.20
2019,10,15,05,33,10.20
2019,10,15,05,34,10.80
2019,10,15,05,35,11.50
2019,10,15,05,36,12.20
2019,10,15,05,37,10.10
2019,10,15,05,38,9.70
2019,10,15,05,39,10.40
2019,10,15,05,40,8.80
2019,10,15,05,41,9.80
2019,10,15,05,42,11.90
2019,10,15,05,43,15.30
2019,10,15,05,44,12.10
2019,10,15,05,45,11.70
2019,10,15,05,46,11.40
2019,10,15,05,47,10.70
2019,10,15,05,48,13.20
2019,10,15,05,49,12.80
2019,10,15,05,50,12.00
2019,10,15,05,51,10.40
2019,10,15,05,52,10.80
2019,10,15,05,53,10.20
2019,10,15,05,54,10.70
2019,10,15,05,55,12.20
2019,10,15,05,56,9.90
2019,10,15,05,57,7.60
2019,10,15,05,58,7.70
2019,10,15,05,59,10.70
2019,10,15,06,00,9.10
2019,10,15,06,01,12.00
2019,10,15,06,02,10.60
2019,10,15,06,03,11.10
2019,10,15,06,04,10.00
2019,10,15,06,05,9.80
2019,10,15,06,06,7.80
2019,10,15,06,07,12.80
2019,10,15,06,08,10.20
2019,10,15,06,09,8.60
2019,10,15,06,10,11.60
2019,10,15,06,11,13.80
2019,10,15,06,12,11.00
2019,10,15,06,13,8.90
2019,10,15,06,14,9.40
2019,10,15,06,15,12.80
2019,10,15,06,16,11.60
2019,10,15,06,17,9.90
2019,10,15,06,18,10.10
2019,10,15,06,19,12.70
2019,10,15,06,20,12.00
2019,10,15,06,21,12.00
2019,10,15,06,22,8.90
2019,10,15,06,23,9.10
2019,10,15,06,24,10.60
2019,10,15,06,25,10.30
2019,10,15,06,26,10.40
2019,10,15,06,27,7.00
2019,10,15,06,28,11.00
2019,10,15,06,29,11.60
2019,10,15,06,30,11.20
2019,10,15,06,31,6.80
2019,10,15,06,32,8.20
2019,10,15,06,33,9.40
2019,10,15,06,34,11.50
2019,10,15,06,35,12.50
2019,10,15,06,36,10.00
2019,10,15,06,37,8.80
2019,10,15,06,38,8.40
2019,10,15,06,39,8.10
2019,10,15,06,40,9.60
2019,10,15,06,41,9.80
2019,10,15,06,42,8.10
2019,10,15,06,43,9.60
2019,10,15,06,44,9.60
2019,10,15,06,45,5.50
2019,10,15,06,46,7.30
2019,10,15,06,47,7.00
2019,10,15,06,48,6.40
2019,10,15,06,49,9.50
2019,10,15,06,50,7.00
2019,10,15,06,51,9.20
2019,10,15,06,52,8.30
2019,10,15,06,53,9.10
2019,10,15,06,54,12.00
2019,10,15,06,55,6.80
2019,10,15,06,56,8.90
2019,10,15,06,57,7.30
2019,10,15,06,58,5.80
2019,10,15,06,59,7.60
2019,10,15,07,00,8.50
2019,10,15,07,01,8.40
2019,10,15,07,02,8.30
2019,10,15,07,03,5.50
2019,10,15,07,04,3.00
2019,10,15,07,05,1.70
2019,10,15,07,06,3.60
2019,10,15,07,07,4.70
2019,10,15,07,08,6.00
2019,10,15,07,09,8.10
2019,10,15,07,10,8.50
2019,10,15,07,11,6.60
2019,10,15,07,12,7.60
2019,10,15,07,13,5.50
2019,10,15,07,14,6.10
2019,10,15,07,15,6.10
2019,10,15,07,16,10.70
2019,10,15,07,17,5.80
2019,10,15,07,18,5.50
2019,10,15,07,19,7.60
2019,10,15,07,20,4.90
2019,10,15,07,21,9.00
2019,10,15,07,22,8.90
2019,10,15,07,23,10.40
2019,10,15,07,24,13.40
2019,10,15,07,25,11.30
2019,10,15,07,26,11.60
2019,10,15,07,27,11.30
2019,10,15,07,28,17.60
2019,10,15,07,29,13.10
2019,10,15,07,30,8.90
2019,10,15,07,31,10.40
2019,10,15,07,32,7.60
2019,10,15,07,33,8.10
2019,10,15,07,34,7.00
2019,10,15,07,35,3.60
2019,10,15,07,36,6.20
2019,10,15,07,37,7.60
2019,10,15,07,38,4.00
2019,10,15,07,39,4.10
2019,10,15,07,40,5.10
2019,10,15,07,41,8.30
2019,10,15,07,42,8.80
2019,10,15,07,43,6.40
2019,10,15,07,44,8.60
2019,10,15,07,45,5.80
2019,10,15,07,46,6.30
2019,10,15,07,47,9.00
2019,10,15,07,48,7.50
2019,10,15,07,49,7.20
2019,10,15,07,50,7.30
2019,10,15,07,51,7.20
2019,10,15,07,52,5.70
2019,10,15,07,53,8.70
2019,10,15,07,54,10.30
2019,10,15,07,55,9.20
2019,10,15,07,56,10.00
2019,10,15,07,57,8.40
2019,10,15,07,58,7.60
2019,10,15,07,59,5.60
2019,10,15,08,00,7.40
2019,10,15,08,01,9.80
2019,10,15,08,02,8.30
2019,10,15,08,03,6.80
2019,10,15,08,04,6.90
2019,10,15,08,05,9.90
2019,10,15,08,06,7.90
2019,10,15,08,07,7.10
2019,10,15,08,08,7.20
2019,10,15,08,09,9.30
2019,10,15,08,10,7.60
2019,10,15,08,11,9.50
2019,10,15,08,12,6.90
2019,10,15,08,13,6.80
2019,10,15,08,14,5.30
2019,10,15,08,15,4.60
2019,10,15,08,16,5.20
2019,10,15,08,17,3.40
2019,10,15,08,18,2.70
2019,10,15,08,19,5.80
2019,10,15,08,20,4.50
2019,10,15,08,21,5.70
2019,10,15,08,22,5.80
2019,10,15,08,23,7.10
2019,10,15,08,24,12.60
2019,10,15,08,25,12.00
2019,10,15,08,26,10.50
2019,10,15,08,27,10.40
2019,10,15,08,28,10.90
2019,10,15,08,29,6.60
2019,10,15,08,30,10.50
2019,10,15,08,31,9.90
2019,10,15,08,32,10.40
2019,10,15,08,33,12.20
2019,10,15,08,34,12.20
2019,10,15,08,35,11.30
2019,10,15,08,36,10.70
2019,10,15,08,37,9.20
2019,10,15,08,38,8.50
2019,10,15,08,39,12.00
2019,10,15,08,40,13.40
2019,10,15,08,41,8.00
2019,10,15,08,42,12.90
2019,10,15,08,43,12.30
2019,10,15,08,44,6.70
2019,10,15,08,45,12.40
2019,10,15,08,46,8.80
2019,10,15,08,47,12.50
2019,10,15,08,48,12.90
2019,10,15,08,49,12.90
2019,10,15,08,50,10.00
2019,10,15,08,51,9.90
2019,10,15,08,52,10.90
2019,10,15,08,53,10.00
2019,10,15,08,54,11.30
2019,10,15,08,55,14.10
2019,10,15,08,56,14.70
2019,10,15,08,57,16.30
2019,10,15,08,58,14.00
2019,10,15,08,59,13.00
2019,10,15,09,00,15.90
2019,10,15,09,01,8.30
2019,10,15,09,02,7.40
2019,10,15,09,03,11.10
2019,10,15,09,04,9.10
2019,10,15,09,05,10.10
2019,10,15,09,06,11.00
2019,10,15,09,07,11.30
2019,10,15,09,08,10.30
2019,10,15,09,09,10.30
2019,10,15,09,10,5.70
2019,10,15,09,11,7.40
2019,10,15,09,12,9.80
2019,10,15,09,13,15.30
2019,10,15,09,14,14.40
2019,10,15,09,15,16.00
2019,10,15,09,16,13.90
2019,10,15,09,17,13.40
2019,10,15,09,18,14.20
2019,10,15,09,19,17.70
2019,10,15,09,20,15.10
2019,10,15,09,21,11.80
2019,10,15,09,22,14.80
2019,10,15,09,23,10.00
2019,10,15,09,24,6.00
2019,10,15,09,25,7.90
2019,10,15,09,26,12.50
2019,10,15,09,27,13.00
2019,10,15,09,28,12.50
2019,10,15,09,29,12.40
2019,10,15,09,30,10.40
2019,10,15,09,31,10.30
2019,10,15,09,32,6.90
2019,10,15,09,33,10.80
2019,10,15,09,34,7.20
2019,10,15,09,35,7.30
2019,10,15,09,36,10.70
2019,10,15,09,37,9.80
2019,10,15,09,38,10.50
2019,10,15,09,39,8.50
2019,10,15,09,40,8.40
2019,10,15,09,41,11.30
2019,10,15,09,42,11.60
2019,10,15,09,43,12.00
2019,10,15,09,44,14.30
2019,10,15,09,45,14.40
2019,10,15,09,46,13.70
2019,10,15,09,47,10.90
2019,10,15,09,48,13.10
2019,10,15,09,49,16.80
2019,10,15,09,50,12.30
2019,10,15,09,51,12.20
2019,10,15,09,52,10.00
2019,10,15,09,53,10.60
2019,10,15,09,54,14.50
2019,10,15,09,55,13.00
2019,10,15,09,56,17.20
2019,10,15,09,57,11.30
2019,10,15,09,58,13.90
2019,10,15,09,59,13.00
2019,10,15,10,00,18.10
2019,10,15,10,01,14.10
2019,10,15,10,02,12.80
2019,10,15,10,03,15.70
2019,10,15,10,04,17.60
2019,10,15,10,05,15.30
2019,10,15,10,06,12.50
2019,10,15,10,07,13.30
2019,10,15,10,08,13.50
2019,10,15,10,09,17.60
2019,10,15,10,10,15.80
2019,10,15,10,11,15.50
2019,10,15,10,12,15.40
2019,10,15,10,13,15.60
2019,10,15,10,14,15.60
2019,10,15,10,15,20.80
2019,10,15,10,16,15.70
2019,10,15,10,17,14.20
2019,10,15,10,18,16.60
2019,10,15,10,19,18.90
2019,10,15,10,20,16.10
2019,10,15,10,21,17.80
2019,10,15,10,22,17.10
2019,10,15,10,23,21.90
2019,10,15,10,24,17.40
2019,10,15,10,25,17.70
2019,10,15,10,26,17.30
2019,10,15,10,27,20.70
2019,10,15,10,28,15.60
2019,10,15,10,29,19.00
2019,10,15,10,30,14.50
2019,10,15,10,31,11.90
2019,10,15,10,32,16.60
2019,10,15,10,33,19.10
2019,10,15,10,34,18.80
2019,10,15,10,35,20.60
2019,10,15,10,36,17.60
2019,10,15,10,37,15.10
2019,10,15,10,38,19.40
2019,10,15,10,39,17.10
2019,10,15,10,40,13.60
2019,10,15,10,41,19.70
2019,10,15,10,42,17.30
2019,10,15,10,43,16.60
2019,10,15,10,44,15.20
2019,10,15,10,45,19.70
2019,10,15,10,46,18.30
2019,10,15,10,47,23.00
2019,10,15,10,48,19.00
2019,10,15,10,49,16.90
2019,10,15,10,50,20.90
2019,10,15,10,51,18.10
2019,10,15,10,52,19.90
2019,10,15,10,53,16.00
2019,10,15,10,54,21.50
2019,10,15,10,55,14.40
2019,10,15,10,56,16.20
2019,10,15,10,57,14.80
2019,10,15,10,58,17.90
2019,10,15,10,59,18.60
2019,10,15,11,00,19.20
2019,10,15,11,01,19.40
2019,10,15,11,02,16.20
2019,10,15,11,03,18.00
2019,10,15,11,04,18.80
2019,10,15,11,05,22.60
2019,10,15,11,06,18.10
2019,10,15,11,07,15.40
2019,10,15,11,08,16.30
2019,10,15,11,09,20.60
2019,10,15,11,10,17.20
2019,10,15,11,11,12.40
2019,10,15,11,12,14.20
2019,10,15,11,13,17.10
2019,10,15,11,14,18.00
2019,10,15,11,15,18.10
2019,10,15,11,16,21.80
2019,10,15,11,17,19.60
2019,10,15,11,18,18.70
2019,10,15,11,19,18.00
2019,10,15,11,20,21.20
2019,10,15,11,21,19.70
2019,10,15,11,22,17.60
2019,10,15,11,23,22.90
2019,10,15,11,24,21.00
2019,10,15,11,25,15.40
2019,10,15,11,26,24.30
2019,10,15,11,27,21.00
2019,10,15,11,28,20.40
2019,10,15,11,29,20.10
2019,10,15,11,30,22.80
2019,10,15,11,31,20.50
2019,10,15,11,32,17.20
2019,10,15,11,33,24.00
2019,10,15,11,34,19.10
2019,10,15,11,35,25.50
2019,10,15,11,36,20.70
2019,10,15,11,37,22.50
2019,10,15,11,38,25.20
2019,10,15,11,39,24.50
2019,10,15,11,40,24.30
2019,10,15,11,41,22.90
2019,10,15,11,42,24.80
2019,10,15,11,43,21.50
2019,10,15,11,44,22.60
2019,10,15,11,45,22.50
2019,10,15,11,46,26.80
2019,10,15,11,47,27.70
2019,10,15,11,48,26.00
2019,10,15,11,49,27.10
2019,10,15,11,50,17.70
2019,10,15,11,51,24.60
2019,10,15,11,52,24.50
2019,10,15,11,53,21.50
2019,10,15,11,54,20.30
2019,10,15,11,55,20.70
2019,10,15,11,56,27.40
2019,10,15,11,57,25.60
2019,10,15,11,58,27.80
2019,10,15,11,59,22.40
2019,10,15,12,00,18.80
2019,10,15,12,01,29.00
2019,10,15,12,02,25.80
2019,10,15,12,03,18.00
2019,10,15,12,04,25.50
2019,10,15,12,05,24.90
2019,10,15,12,06,28.10
2019,10,15,12,07,27.90
2019,10,15,12,08,26.60
2019,10,15,12,09,25.90
2019,10,15,12,10,28.10
2019,10,15,12,11,24.50
2019,10,15,12,12,25.00
2019,10,15,12,13,22.10
2019,10,15,12,14,26.40
2019,10,15,12,15,20.70
2019,10,15,12,16,27.00
2019,10,15,12,17,25.30
2019,10,15,12,18,27.20
2019,10,15,12,19,29.10
2019,10,15,12,20,24.10
2019,10,15,12,21,28.00
2019,10,15,12,22,23.90
2019,10,15,12,23,24.20
2019,10,15,12,24,24.90
2019,10,15,12,25,28.00
2019,10,15,12,26,20.90
2019,10,15,12,27,29.90
2019,10,15,12,28,21.30
2019,10,15,12,29,22.70
2019,10,15,12,30,29.20
2019,10,15,12,31,26.40
2019,10,15,12,32,25.30
2019,10,15,12,33,27.40
2019,10,15,12,34,25.40
2019,10,15,12,35,22.70
2019,10,15,12,36,25.10
2019,10,15,12,37,27.00
2019,10,15,12,38,29.90
2019,10,15,12,39,24.70
2019,10,15,12,40,27.90
2019,10,15,12,41,18.90
2019,10,15,12,42,26.60
2019,10,15,12,43,25.60
2019,10,15,12,44,23.60
2019,10,15,12,45,22.00
2019,10,15,12,46,22.20
2019,10,15,12,47,29.20
2019,10,15,12,48,23.10
2019,10,15,12,49,23.20
2019,10,15,12,50,27.80
2019,10,15,12,51,20.60
2019,10,15,12,52,27.20
2019,10,15,12,53,21.60
2019,10,15,12,54,29.00
2019,10,15,12,55,24.60
2019,10,15,12,56,20.00
2019,10,15,12,57,17.90
2019,10,15,12,58,22.20
2019,10,15,12,59,23.20
2019,10,15,13,00,20.90
2019,10,15,13,01,27.90
2019,10,15,13,02,22.50
2019,10,15,13,03,28.90
2019,10,15,13,04,27.90
2019,10,15,13,05,23.90
2019,10,15,13,06,25.50
2019,10,15,13,07,27.00
2019,10,15,13,08,29.20
2019,10,15,13,09,23.40
2019,10,15,13,10,25.20
2019,10,15,13,11,29.90
2019,10,15,13,12,26.80
2019,10,15,13,13,24.10
2019,10,15,13,14,31.20
2019,10,15,13,15,23.50
2019,10,15,13,16,31.50
2019,10,15,13,17,26.20
2019,10,15,13,18,22.30
2019,10,15,13,19,29.60
2019,10,15,13,20,29.00
2019,10,15,13,21,33.20
2019,10,15,13,22,31.00
2019,10,15,13,23,23.00
2019,10,15,13,24,25.40
2019,10,15,13,25,27.40
2019,10,15,13,26,27.70
2019,10,15,13,27,25.60
2019,10,15,13,28,26.00
2019,10,15,13,29,22.30
2019,10,15,13,30,29.90
2019,10,15,13,31,23.50
2019,10,15,13,32,21.10
2019,10,15,13,33,25.40
2019,10,15,13,34,24.90
2019,10,15,13,35,28.60
2019,10,15,13,36,27.70
2019,10,15,13,37,26.20
2019,10,15,13,38,22.30
2019,10,15,13,39,21.30
2019,10,15,13,40,27.50
2019,10,15,13,41,23.60
2019,10,15,13,42,28.40
2019,10,15,13,43,29.20
2019,10,15,13,44,23.40
2019,10,15,13,45,23.80
2019,10,15,13,46,28.70
2019,10,15,13,47,28.30
2019,10,15,13,48,23.90
2019,10,15,13,49,29.80
2019,10,15,13,50,32.50
2019,10,15,13,51,36.00
2019,10,15,13,52,34.90
2019,10,15,13,53,25.50
2019,10,15,13,54,19.70
2019,10,15,13,55,23.40
2019,10,15,13,56,28.70
2019,10,15,13,57,28.10
2019,10,15,13,58,26.00
2019,10,15,13,59,20.60
2019,10,15,14,00,22.40
2019,10,15,14,01,30.00
2019,10,15,14,02,35.90
2019,10,15,14,03,27.10
2019,10,15,14,04,23.70
2019,10,15,14,05,27.00
2019,10,15,14,06,26.60
2019,10,15,14,07,26.70
2019,10,15,14,08,25.90
2019,10,15,14,09,26.70
2019,10,15,14,10,24.40
2019,10,15,14,11,24.80
2019,10,15,14,12,26.80
2019,10,15,14,13,31.90
2019,10,15,14,14,26.50
2019,10,15,14,15,30.20
2019,10,15,14,16,30.60
2019,10,15,14,17,28.20
2019,10,15,14,18,33.40
2019,10,15,14,19,30.50
2019,10,15,14,20,26.60
2019,10,15,14,21,24.10
2019,10,15,14,22,22.10
2019,10,15,14,23,19.40
2019,10,15,14,24,28.60
2019,10,15,14,25,28.40
2019,10,15,14,26,28.30
2019,10,15,14,27,29.20
2019,10,15,14,28,23.40
2019,10,15,14,29,27.40
2019,10,15,14,30,32.30
2019,10,15,14,31,33.10
2019,10,15,14,32,22.90
2019,10,15,14,33,27.60
2019,10,15,14,34,31.10
2019,10,15,14,35,36.50
2019,10,15,14,36,31.10
2019,10,15,14,37,38.40
2019,10,15,14,38,26.60
2019,10,15,14,39,27.60
2019,10,15,14,40,28.90
2019,10,15,14,41,29.60
2019,10,15,14,42,29.00
2019,10,15,14,43,29.70
2019,10,15,14,44,23.90
2019,10,15,14,45,29.60
2019,10,15,14,46,28.10
2019,10,15,14,47,26.90
2019,10,15,14,48,30.30
2019,10,15,14,49,31.60
2019,10,15,14,50,24.30
2019,10,15,14,51,27.90
2019,10,15,14,52,29.20
2019,10,15,14,53,27.10
2019,10,15,14,54,23.40
2019,10,15,14,55,28.70
2019,10,15,14,56,31.40
2019,10,15,14,57,35.60
2019,10,15,14,58,30.00
2019,10,15,14,59,29.00
2019,10,15,15,00,23.40
2019,10,15,15,01,28.00
2019,10,15,15,02,31.10
2019,10,15,15,03,29.90
2019,10,15,15,04,25.50
2019,10,15,15,05,24.40
2019,10,15,15,06,26.70
2019,10,15,15,07,29.40
2019,10,15,15,08,26.30
2019,10,15,15,09,25.80
2019,10,15,15,10,24.30
2019,10,15,15,11,32.20
2019,10,15,15,12,31.30
2019,10,15,15,13,27.10
2019,10,15,15,14,24.00
2019,10,15,15,15,27.70
2019,10,15,15,16,29.30
2019,10,15,15,17,27.20
2019,10,15,15,18,22.90
2019,10,15,15,19,28.10
2019,10,15,15,20,29.10
2019,10,15,15,21,26.90
2019,10,15,15,22,25.00
2019,10,15,15,23,25.90
2019,10,15,15,24,28.50
2019,10,15,15,25,24.10
2019,10,15,15,26,27.40
2019,10,15,15,27,24.50
2019,10,15,15,28,26.90
2019,10,15,15,29,23.60
2019,10,15,15,30,17.60
2019,10,15,15,31,19.80
2019,10,15,15,32,22.40
2019,10,15,15,33,27.80
2019,10,15,15,34,27.10
2019,10,15,15,35,28.40
2019,10,15,15,36,27.60
2019,10,15,15,37,28.70
2019,10,15,15,38,27.70
2019,10,15,15,39,24.50
2019,10,15,15,40,23.40
2019,10,15,15,41,29.10
2019,10,15,15,42,28.80
2019,10,15,15,43,24.20
2019,10,15,15,44,24.40
2019,10,15,15,45,25.50
2019,10,15,15,46,22.80
2019,10,15,15,47,29.00
2019,10,15,15,48,31.50
2019,10,15,15,49,26.90
2019,10,15,15,50,24.00
2019,10,15,15,51,26.30
2019,10,15,15,52,21.60
2019,10,15,15,53,24.30
2019,10,15,15,54,22.40
2019,10,15,15,55,28.90
2019,10,15,15,56,22.60
2019,10,15,15,57,28.30
2019,10,15,15,58,26.80
2019,10,15,15,59,25.90
2019,10,15,16,00,24.90
2019,10,15,16,01,25.30
2019,10,15,16,02,19.70
2019,10,15,16,03,23.60
2019,10,15,16,04,26.20
2019,10,15,16,05,16.00
2019,10,15,16,06,24.10
2019,10,15,16,07,21.20
2019,10,15,16,08,19.20
2019,10,15,16,09,22.50
2019,10,15,16,10,30.80
2019,10,15,16,11,24.10
2019,10,15,16,12,26.40
2019,10,15,16,13,26.20
2019,10,15,16,14,25.10
2019,10,15,16,15,31.10
2019,10,15,16,16,22.80
2019,10,15,16,17,24.10
2019,10,15,16,18,22.90
2019,10,15,16,19,25.00
2019,10,15,16,20,25.30
2019,10,15,16,21,27.40
2019,10,15,16,22,22.30
2019,10,15,16,23,22.60
2019,10,15,16,24,21.60
2019,10,15,16,25,23.70
2019,10,15,16,26,22.70
2019,10,15,16,27,24.20
2019,10,15,16,28,21.90
2019,10,15,16,29,22.00
2019,10,15,16,30,23.00
2019,10,15,16,31,20.80
2019,10,15,16,32,27.10
2019,10,15,16,33,30.80
2019,10,15,16,34,21.70
2019,10,15,16,35,27.50
2019,10,15,16,36,23.80
2019,10,15,16,37,27.10
2019,10,15,16,38,27.70
2019,10,15,16,39,22.70
2019,10,15,16,40,20.70
2019,10,15,16,41,24.00
2019,10,15,16,42,26.00
2019,10,15,16,43,21.80
2019,10,15,16,44,21.40
2019,10,15,16,45,23.60
2019,10,15,16,46,23.80
2019,10,15,16,47,22.20
2019,10,15,16,48,23.70
2019,10,15,16,49,24.70
2019,10,15,16,50,20.00
2019,10,15,16,51,28.10
2019,10,15,16,52,18.10
2019,10,15,16,53,21.20
2019,10,15,16,54,20.20
2019,10,15,16,55,22.70
2019,10,15,16,56,23.50
2019,10,15,16,57,25.00
2019,10,15,16,58,20.70
2019,10,15,16,59,20.60
2019,10,15,17,00,17.10
2019,10,15,17,01,15.40
2019,10,15,17,02,17.50
2019,10,15,17,03,17.20
2019,10,15,17,04,17.70
2019,10,15,17,05,16.20
2019,10,15,17,06,19.80
2019,10,15,17,07,21.00
2019,10,15,17,08,19.10
2019,10,15,17,09,16.40
2019,10,15,17,10,20.60
2019,10,15,17,11,19.60
2019,10,15,17,12,21.20
2019,10,15,17,13,19.30
2019,10,15,17,14,23.10
2019,10,15,17,15,19.40
2019,10,15,17,16,21.50
2019,10,15,17,17,20.60
2019,10,15,17,18,17.10
2019,10,15,17,19,21.00
2019,10,15,17,20,18.50
2019,10,15,17,21,18.50
2019,10,15,17,22,16.40
2019,10,15,17,23,21.00
2019,10,15,17,24,21.20
2019,10,15,17,25,19.80
2019,10,15,17,26,18.60
2019,10,15,17,27,20.60
2019,10,15,17,28,16.20
2019,10,15,17,29,16.90
2019,10,15,17,30,18.70
2019,10,15,17,31,23.50
2019,10,15,17,32,15.70
2019,10,15,17,33,12.90
2019,10,15,17,34,11.30
2019,10,15,17,35,18.50
2019,10,15,17,36,21.00
2019,10,15,17,37,17.40
2019,10,15,17,38,20.40
2019,10,15,17,39,20.40